TimeCDT,TemperatureF,Dew PointF,Humidity,Sea Level PressureIn,VisibilityMPH,Wind Direction,Wind SpeedMPH,Gust SpeedMPH,PrecipitationIn,Events,Conditions,WindDirDegrees,DateUTC
12:54 AM,34.0,25.0,70,29.97,10.0,ESE,13.8,-,N/A,,Overcast,120,2012-03-30 05:54:00
1:54 AM,34.0,25.0,70,29.95,10.0,East,8.1,-,N/A,,Overcast,100,2012-03-30 06:54:00
2:54 AM,34.0,26.1,73,29.96,8.0,East,5.8,-,0.00,Rain,Light Rain,80,2012-03-30 07:54:00
3:54 AM,33.1,28.9,85,29.89,10.0,East,10.4,-,0.01,Rain,Light Rain,90,2012-03-30 08:54:00
4:26 AM,33.8,28.4,81,29.86,9.0,ENE,6.9,-,0.01,Rain,Light Rain,60,2012-03-30 09:26:00
4:54 AM,33.1,30.0,89,29.87,6.0,East,10.4,-,0.03,Rain,Light Rain,80,2012-03-30 09:54:00
5:41 AM,33.8,30.2,87,29.83,3.0,East,8.1,-,0.04,Rain,Rain,90,2012-03-30 10:41:00
5:54 AM,34.0,32.0,92,29.87,3.0,ENE,6.9,-,0.05,Rain,Light Rain,60,2012-03-30 10:54:00
6:54 AM,34.0,32.0,92,29.87,5.0,East,12.7,18.4,0.05,Rain,Light Rain,80,2012-03-30 11:54:00
7:54 AM,35.1,32.0,89,29.88,3.0,East,10.4,-,0.00,Rain,Light Rain,90,2012-03-30 12:54:00
8:54 AM,34.0,34.0,100,29.88,2.5,ESE,9.2,-,0.00,Rain,Light Rain,110,2012-03-30 13:54:00
9:54 AM,35.1,34.0,96,29.88,2.0,East,8.1,-,0.00,Rain,Light Rain,90,2012-03-30 14:54:00
10:12 AM,35.6,33.8,93,29.84,1.8,East,8.1,-,0.00,Rain,Light Rain,100,2012-03-30 15:12:00
10:21 AM,35.6,33.8,93,29.84,2.0,East,12.7,18.4,0.00,Rain,Light Rain,90,2012-03-30 15:21:00
10:29 AM,35.6,33.8,93,29.84,1.8,East,9.2,18.4,0.00,Rain,Light Rain,100,2012-03-30 15:29:00
10:54 AM,35.1,35.1,100,29.89,1.5,East,8.1,-,0.01,Rain,Light Rain,100,2012-03-30 15:54:00
11:16 AM,35.6,33.8,93,29.84,2.0,East,9.2,-,0.00,Rain,Light Rain,90,2012-03-30 16:16:00
11:54 AM,35.1,34.0,96,29.91,5.0,East,8.1,-,0.00,,Overcast,100,2012-03-30 16:54:00
12:54 PM,36.0,33.1,89,29.88,10.0,ESE,12.7,-,N/A,,Overcast,110,2012-03-30 17:54:00
1:54 PM,37.0,34.0,89,29.89,10.0,East,4.6,-,N/A,,Overcast,100,2012-03-30 18:54:00
2:54 PM,37.0,33.1,86,29.89,10.0,ENE,6.9,-,N/A,,Overcast,70,2012-03-30 19:54:00
3:54 PM,37.9,33.1,83,29.90,10.0,ESE,8.1,-,N/A,,Overcast,110,2012-03-30 20:54:00
4:54 PM,37.9,34.0,86,29.90,10.0,ESE,6.9,-,N/A,,Overcast,110,2012-03-30 21:54:00
5:54 PM,37.0,33.1,86,29.92,10.0,ESE,5.8,-,N/A,,Overcast,110,2012-03-30 22:54:00
6:54 PM,37.0,33.1,86,29.94,10.0,ESE,8.1,-,N/A,,Overcast,120,2012-03-30 23:54:00
7:54 PM,36.0,33.1,89,29.95,8.0,East,5.8,-,N/A,,Overcast,100,2012-03-31 00:54:00
8:27 PM,35.6,33.8,93,29.91,7.0,East,6.9,-,N/A,,Overcast,90,2012-03-31 01:27:00
8:54 PM,35.1,33.1,92,29.97,6.0,East,6.9,-,N/A,,Overcast,90,2012-03-31 01:54:00
9:54 PM,35.1,32.0,89,29.98,4.0,ENE,6.9,-,N/A,,Overcast,70,2012-03-31 02:54:00
10:54 PM,34.0,32.0,92,29.98,2.0,SE,8.1,-,N/A,,Overcast,130,2012-03-31 03:54:00
11:54 PM,34.0,32.0,92,29.99,3.0,ESE,8.1,-,N/A,,Overcast,120,2012-03-31 04:54:00